[[{"header":{"parameterUnit":"m.s-1","parameterCategory":1,"la1":30.2991,"la2":30.254,"lo1":-89.0895,"lo2":-89.0444,"dy":0.0017,"dx":0.0017,"nx":28,"ny":28,"refTime":"2024-06-19T03:00:00:Z","depth":0,"parameterNumber":2,"parameterNumberName":"U-component_of_WINDS"},"data":[0,0,0,0,0,0,0,0,0,0,0,0,0,0,0,0,0,0,0,0,0,0,0,0,0,0,0,0,0,0,0,0,0,0,0,0,0,0,0,0,0,0,0,0,0,0,0,0,0,0,0,0,0,0,0,0,0,0,-9.3251,-9.3251,0,-9.326,-9.326,-9.326,-9.3057,-9.3052,-9.3047,-9.3041,-9.3048,-9.3053,-9.3058,0,0,0,0,0,0,0,0,0,0,0,0,0,-9.3057,-9.3062,-9.3251,-9.3251,-9.3252,-9.326,-9.326,-9.326,-9.3058,-9.3052,-9.3045,-9.3039,-9.3046,-9.3052,-9.3059,0,0,0,0,0,0,0,0,0,0,0,0,0,-9.3111,-9.3063,-9.3251,-9.3152,-9.3143,-9.326,-9.326,-9.326,-9.306,-9.3052,-9.3043,-9.3036,-9.3044,-9.3052,-9.306,-9.3271,0,0,-9.3084,-9.3087,0,0,0,0,0,0,0,0,-9.3108,-9.3119,-9.3166,-9.3159,-9.3149,-9.3149,-9.3194,-9.3264,-9.3062,-9.3091,-9.3041,-9.3032,-9.3088,-9.3092,-9.3111,-9.3272,-9.3272,-9.3084,-9.3089,-9.3092,-9.3095,0,0,0,0,0,0,0,-9.3105,-9.3117,-9.3254,-9.3167,-9.3157,-9.3106,-9.3105,-9.3206,-9.3135,-9.3088,-9.3073,-9.3077,-9.3082,-9.3104,-9.311,-9.3272,-9.3084,-9.3091,-9.3096,-9.3099,-9.3604,-9.3612,0,0,0,0,0,0,-9.3115,-9.3115,-9.3254,-9.3255,-9.3108,-9.3116,-9.3115,-9.3158,-9.3134,-9.3122,-9.3084,-9.3068,-9.3095,-9.3101,-9.3109,-9.3353,-9.3092,-9.31,-9.3104,-9.3596,-9.3606,-9.3615,0,0,0,0,0,0,-9.3112,-9.3129,-9.3254,-9.3181,-9.3193,-9.3128,-9.3178,-9.3162,-9.3184,-9.3131,-9.3117,-9.312,-9.3089,-9.3098,-9.3232,-9.335,-9.3103,-9.311,-9.3585,-9.3599,-9.3611,-9.3843,0,0,0,0,0,0,-9.3107,-9.3129,-9.321,-9.3185,-9.3198,-9.3378,-9.3185,-9.3168,-9.3198,-9.3177,-9.3161,-9.315,-9.3083,-9.3222,-9.324,-9.3356,-9.3117,-9.3574,-9.3591,-9.3607,-9.3825,-9.3863,-9.3895,0,0,0,0,0,-9.3101,-9.3275,-9.3215,-9.3233,-9.3297,-9.3385,-9.3392,-9.3312,-9.3209,-9.3288,-9.3254,-9.3151,-9.3336,-9.3237,-9.3256,-9.3377,-9.3566,-9.3586,-9.3605,-9.3809,-9.3855,-9.3895,0,0,0,0,0,0,-9.3314,-9.3269,-9.3202,-9.3374,-9.3385,-9.3351,-9.3448,-9.3364,-9.3404,-9.3382,-9.328,-9.3278,-9.3428,-9.3416,-9.3307,-9.358,-9.3432,-9.3457,-9.3581,-9.3624,-9.3659,-9.3656,-9.3123,0,0,0,0,0,-9.3381,-9.3458,-9.3414,-9.3569,-9.3579,-9.3514,-9.3549,-9.3486,-9.3493,-9.3496,-9.3472,-9.3482,-9.3542,-9.3583,-9.3636,-9.3824,-9.3816,-9.3917,-9.3952,-9.3981,-9.4002,-9.4098,-9.4141,-9.368,-9.368,-9.3679,0,0,-9.352,-9.3505,-9.3559,-9.3612,-9.3613,-9.3693,-9.3518,-9.361,-9.3668,-9.351,-9.3633,-9.3618,-9.3622,-9.3783,-9.3853,-9.3778,-9.4128,-9.4006,-9.403,-9.4034,-9.4123,-9.4166,-9.4205,-9.3693,-9.3691,-9.3689,0,0,-9.3812,-9.3811,-9.3938,-9.3944,-9.3948,-9.3904,-9.3936,-9.3915,-9.3897,-9.4021,-9.3904,-9.3971,-9.4078,-9.4085,-9.4102,-9.4401,-9.4306,-9.4422,-9.4603,-9.4699,-9.4735,-9.4766,-9.4869,-9.4908,-9.4443,-9.4444,-9.4444,0,-9.3983,-9.4099,-9.4014,-9.4114,-9.4139,-9.4003,-9.413,-9.414,-9.4162,-9.4182,-9.4098,-9.4228,-9.4222,-9.4382,-9.4455,-9.4476,-9.4506,-9.442,-9.4737,-9.4768,-9.4796,-9.4892,-9.4932,-9.4457,-9.4456,-9.4454,-9.4453,0,-9.4308,-9.4391,-9.4493,-9.4518,-9.4556,-9.467,-9.4601,-9.4649,-9.4585,-9.455,-9.4677,-9.4665,-9.4712,-9.4746,-9.4684,-9.4898,-9.4851,-9.4755,-9.4603,-9.4855,-9.4944,-9.498,-9.4477,-9.4472,-9.4468,-9.4465,0,0,-9.4729,-9.4708,-9.4747,-9.4755,-9.4752,-9.4814,-9.4922,-9.4968,-9.501,-9.5032,-9.5117,-9.5212,-9.5122,-9.5143,-9.5081,-9.5165,-9.5398,-9.5057,-9.5056,-9.5117,-9.5629,-9.5698,-9.5742,-9.5338,-9.5345,-9.535,-9.5627,0,-9.501,-9.5192,-9.5119,-9.5306,-9.538,-9.5253,-9.5347,-9.5354,-9.5325,-9.5383,-9.5351,-9.5418,-9.5297,-9.5308,-9.5386,-9.5353,-9.5499,-9.5333,-9.5413,-9.5417,-9.5411,-9.5789,-9.5863,-9.6124,-9.5662,-9.5668,-9.5672,0,-9.536,-9.5396,-9.5591,-9.5574,-9.5602,-9.5687,-9.5724,-9.5782,-9.5788,-9.5761,-9.5786,-9.5705,-9.5808,-9.5663,-9.5802,-9.5691,-9.5721,-9.5711,-9.5719,-9.5718,-9.5556,-9.5795,-9.6206,-9.6244,-9.5727,-9.5722,-9.5718,0,-9.5643,-9.574,-9.5868,-9.5881,-9.5866,-9.5928,-9.5925,-9.5923,-9.5956,-9.5989,-9.6008,-9.6053,-9.6077,-9.6113,-9.6046,-9.5948,-9.6194,-9.6044,-9.6172,-9.6174,-9.6224,-9.6221,-9.6641,-9.6254,-9.6253,-9.6252,-9.6251,0,-9.596,-9.6083,-9.5995,-9.6074,-9.6208,-9.6125,-9.6259,-9.6242,-9.6242,-9.6314,-9.6209,-9.6278,-9.6189,-9.625,-9.62,-9.6321,-9.6334,-9.6313,-9.6296,-9.6319,-9.6321,-9.6332,-9.6311,-9.6262,-9.626,-9.6258,-9.6256,0,-9.6296,-9.6242,-9.6373,-9.6349,-9.6346,-9.6446,-9.6424,-9.6495,-9.646,-9.6553,-9.657,-9.6515,-9.6581,-9.652,-9.6584,-9.655,-9.671,-9.6671,-9.6708,-9.6695,-9.6824,-9.6812,-9.7262,-9.7315,-9.6899,-9.6903,-9.6906,0,-9.6499,-9.6591,-9.6577,-9.6618,-9.6621,-9.669,-9.6722,-9.6645,-9.6684,-9.6699,-9.6768,-9.6826,-9.6867,-9.698,-9.6945,-9.6993,-9.695,-9.7105,-9.6956,-9.6976,-9.6947,-9.694,-9.6947,-9.7133,-9.7139,-9.7143,-9.7146,0,-9.6864,-9.6833,-9.6885,-9.693,-9.6973,-9.7003,-9.7025,-9.7065,-9.6985,-9.7034,-9.7101,-9.7134,-9.72,-9.7258,-9.7295,-9.729,-9.7205,-9.7194,-9.7225,-9.7246,-9.7262,-9.7251,-9.6785,-9.7182,-9.7179,-9.7176,-9.7174,-9.7173,-9.7136,-9.7211,-9.7213,-9.7274,-9.7284,-9.7307,-9.7372,-9.7347,-9.7402,-9.7449,-9.7401,-9.7482,-9.7486,-9.7527,-9.7533,-9.7595,-9.7529,-9.7576,-9.7586,-9.7598,-9.7615,-9.7258,-9.7602,-9.7601,-9.76,-9.7599,-9.7598,0,-9.7491,-9.7487,-9.7545,-9.758,-9.7629,-9.7547,-9.7568,-9.7613,-9.7686,-9.7698,-9.7742,-9.7819,-9.7875,-9.7846,-9.7895,-9.795,-9.7912,-9.7964,-9.7957,-9.7956,-9.7672,-9.7638,-9.7994,-9.7994,-9.7994,-9.7994,-9.7994,-9.7994,-9.7681,-9.7803,-9.7773,-9.7899,-9.7893,-9.7972,-9.799,-9.8011,-9.802,-9.8111,-9.8157,-9.8139,-9.8134,-9.8182,-9.8229,-9.8219,-9.824,-9.8306,-9.8282,-9.8016,-9.7977,-9.7939,-9.7906,-9.8313,-9.8313,-9.856,-9.8562,-9.8564]},{"header":{"parameterUnit":"m.s-1","parameterCategory":1,"la1":30.2991,"la2":30.254,"lo1":-89.0895,"lo2":-89.0444,"dy":0.0017,"dx":0.0017,"nx":28,"ny":28,"refTime":"2024-06-19T03:00:00:Z","depth":0,"parameterNumber":3,"parameterNumberName":"V-component_of_WINDS"},"data":[0,0,0,0,0,0,0,0,0,0,0,0,0,0,0,0,0,0,0,0,0,0,0,0,0,0,0,0,0,0,0,0,0,0,0,0,0,0,0,0,0,0,0,0,0,0,0,0,0,0,0,0,0,0,0,0,0,0,1.7455,1.7455,0,1.7505,1.7505,1.7506,1.7544,1.7545,1.7545,1.7545,1.7593,1.7594,1.7595,0,0,0,0,0,0,0,0,0,0,0,0,0,1.739,1.7391,1.7455,1.7455,1.7456,1.7505,1.7505,1.7506,1.7544,1.7545,1.7545,1.7546,1.7593,1.7594,1.7595,0,0,0,0,0,0,0,0,0,0,0,0,0,1.7427,1.7391,1.7454,1.7481,1.7484,1.7505,1.7506,1.7506,1.7544,1.7545,1.7545,1.7546,1.7593,1.7594,1.7595,1.7593,0,0,1.76,1.76,0,0,0,0,0,0,0,0,1.7425,1.7429,1.7476,1.7479,1.7482,1.7519,1.75,1.7535,1.7544,1.7521,1.7545,1.7546,1.7568,1.7571,1.7579,1.7595,1.7597,1.76,1.7601,1.7601,1.7602,0,0,0,0,0,0,0,1.7422,1.7427,1.7474,1.7477,1.7481,1.749,1.7496,1.7507,1.7541,1.7523,1.7526,1.7532,1.757,1.7578,1.7581,1.7598,1.76,1.7601,1.7602,1.7602,1.7617,1.7616,0,0,0,0,0,0,1.7416,1.7425,1.7473,1.7476,1.7454,1.749,1.7497,1.7507,1.7541,1.7546,1.7531,1.7533,1.7575,1.7579,1.7583,1.7583,1.7601,1.7603,1.7603,1.7617,1.7617,1.7616,0,0,0,0,0,0,1.7414,1.742,1.7471,1.7451,1.7458,1.7491,1.7501,1.7507,1.7516,1.7547,1.7553,1.7534,1.7576,1.7581,1.7591,1.7585,1.7603,1.7604,1.7618,1.7617,1.7616,1.7584,0,0,0,0,0,0,1.7412,1.7419,1.7418,1.7451,1.7459,1.7478,1.7501,1.7508,1.7519,1.7522,1.7551,1.7556,1.7577,1.7589,1.7592,1.7588,1.7606,1.7618,1.7617,1.7616,1.7585,1.7582,1.7579,0,0,0,0,0,1.741,1.7406,1.7418,1.7424,1.746,1.7478,1.7483,1.7508,1.7518,1.7518,1.7538,1.7555,1.7586,1.7589,1.7594,1.7589,1.7619,1.7618,1.7617,1.7587,1.7582,1.7579,0,0,0,0,0,0,1.737,1.7411,1.7425,1.7431,1.7451,1.7484,1.7485,1.7502,1.7518,1.752,1.755,1.7556,1.7563,1.7578,1.7581,1.759,1.7604,1.7604,1.758,1.7577,1.7573,1.7569,1.7607,0,0,0,0,0,1.7362,1.7375,1.7409,1.7412,1.7421,1.7451,1.746,1.7478,1.7499,1.7507,1.7528,1.7547,1.7562,1.757,1.7585,1.7588,1.7595,1.7588,1.7584,1.7582,1.7581,1.7585,1.7582,1.7613,1.7613,1.7613,0,0,1.7346,1.737,1.7375,1.7405,1.7422,1.7434,1.7458,1.7469,1.7478,1.7509,1.752,1.7536,1.756,1.7567,1.7571,1.7579,1.7574,1.758,1.7578,1.7578,1.7583,1.7581,1.7578,1.7612,1.7612,1.7612,0,0,1.7322,1.7341,1.7346,1.7364,1.7391,1.7411,1.7413,1.7444,1.7457,1.7469,1.7493,1.7504,1.7527,1.7544,1.7555,1.7541,1.7557,1.7545,1.7527,1.7531,1.7529,1.7527,1.7522,1.752,1.7544,1.7544,1.7544,0,1.7297,1.7317,1.7346,1.7356,1.7369,1.74,1.7405,1.7421,1.745,1.7458,1.7467,1.7499,1.7517,1.7529,1.7526,1.7534,1.7536,1.754,1.7527,1.7525,1.7524,1.7519,1.7517,1.7542,1.7542,1.7542,1.7543,0,1.7286,1.7299,1.73,1.733,1.7343,1.735,1.7381,1.739,1.7408,1.7428,1.744,1.7464,1.7484,1.7489,1.7505,1.7504,1.7508,1.7521,1.7536,1.7519,1.7515,1.7513,1.754,1.754,1.7541,1.7541,0,0,1.7235,1.7284,1.7284,1.7299,1.7332,1.7343,1.7353,1.7375,1.7382,1.7402,1.7411,1.7432,1.7446,1.7459,1.7477,1.7481,1.7469,1.7494,1.7495,1.7489,1.7469,1.7458,1.7456,1.7481,1.7481,1.748,1.7467,0,1.7216,1.7236,1.7264,1.7275,1.7288,1.7319,1.7328,1.7349,1.7368,1.7382,1.7403,1.7418,1.7434,1.7443,1.7448,1.7469,1.7465,1.7471,1.7488,1.7489,1.7481,1.7454,1.7442,1.7428,1.7466,1.7466,1.7466,0,1.7195,1.7216,1.7229,1.7264,1.727,1.7277,1.7301,1.7314,1.7339,1.7353,1.7369,1.739,1.7402,1.7417,1.7434,1.7437,1.7446,1.7458,1.7459,1.746,1.7475,1.7454,1.7424,1.7422,1.7464,1.7464,1.7464,0,1.7157,1.7188,1.7201,1.7212,1.7253,1.7258,1.7275,1.7301,1.7313,1.7334,1.7342,1.7363,1.7374,1.739,1.7416,1.7424,1.7431,1.7447,1.7442,1.7441,1.744,1.744,1.7411,1.7448,1.7448,1.7448,1.7448,0,1.7132,1.7139,1.7184,1.7191,1.72,1.7233,1.724,1.726,1.7283,1.7295,1.7323,1.7333,1.7368,1.7382,1.7403,1.7414,1.7419,1.743,1.7435,1.7427,1.7426,1.7433,1.7434,1.7447,1.7447,1.7448,1.7448,0,1.709,1.7121,1.7136,1.7175,1.7185,1.7189,1.7222,1.723,1.7253,1.7267,1.7272,1.7307,1.7325,1.7354,1.738,1.7394,1.7402,1.7411,1.7393,1.7396,1.739,1.739,1.7364,1.7362,1.74,1.74,1.7399,0,1.7072,1.7078,1.7118,1.7129,1.7146,1.7162,1.7175,1.7209,1.7221,1.7252,1.7257,1.7278,1.7296,1.7324,1.7351,1.7372,1.7381,1.7371,1.7384,1.7376,1.7381,1.738,1.7381,1.7367,1.7366,1.7366,1.7366,0,1.7036,1.7052,1.707,1.7095,1.7111,1.7132,1.7154,1.7161,1.7199,1.7212,1.7232,1.7247,1.7275,1.7296,1.7321,1.7338,1.7358,1.7362,1.7362,1.7352,1.7342,1.7348,1.7384,1.7362,1.7362,1.7362,1.7362,1.7363,1.7005,1.7012,1.7043,1.7063,1.7084,1.7105,1.7115,1.714,1.7158,1.7185,1.7203,1.7223,1.725,1.7286,1.7302,1.7317,1.7326,1.7326,1.7326,1.7325,1.7322,1.7341,1.7322,1.7322,1.7322,1.7322,1.7323,0,1.697,1.6992,1.7011,1.7042,1.7059,1.7079,1.7105,1.7117,1.7135,1.7159,1.7178,1.7202,1.7223,1.7252,1.7275,1.7282,1.7292,1.7287,1.7286,1.729,1.7313,1.7311,1.7279,1.7279,1.7279,1.7279,1.7279,1.7279,1.6954,1.6968,1.6988,1.7013,1.7035,1.7056,1.7069,1.7088,1.7108,1.7134,1.7153,1.7173,1.72,1.7225,1.7246,1.7254,1.7261,1.7253,1.7263,1.7284,1.7288,1.7292,1.729,1.7254,1.7254,1.7239,1.7239,1.7239]}]]